View from above orbital plane
|
View from above satellite
|
Ground track
|
The orbit data is extracted from the following two-line orbital elements,
1 40069U 14037A 22180.50717319 .00000018 00000-0 27353-4 0 9993
2 40069 98.4303 197.7616 0004592 295.2396 64.8308 14.20712052413574
Epoch (UTC): | 29 June 2022 12:10:19 |
Eccentricity: | 0.0004592 |
inclination: | 98.4303° |
perigee height: | 819 km |
apogee height: | 826 km |
right ascension of ascending node: | 197.7616° |
argument of perigee: | 295.2396° |
revolutions per day: | 14.20712052 |
mean anomaly at epoch: | 64.8308° |
orbit number at epoch: | 41357 |
The dashed part of the orbit path shows where the satellite is in the earth's shadow,
|
|